Tracking 34352 objects as of 8-Jun-2026
HD Live streaming from Space Station
objects crossing your sky now

NOAA 16 DEB

Track NOAA 16 DEB now!
10-day predictions


NORAD ID: 41138
Int'l Code: 2000-055BV
Perigee: 801.4 km
Apogee: 818.4 km
Inclination: 98.7 °
Period: 100.9 minutes
Semi major axis: 7180 km
RCS: Unknown
Launch date: September 21, 2000
Source: United States (US)
Launch site: AIR FORCE WESTERN TEST RANGE (AFWTR)

Note: This is SATELLITE DEBRIS
Your satellite tracking list
Your tracking list is empty




NASA's NSSDC Master Catalog

Two Line Element Set (TLE):
1 41138U 00055BV  26159.21003676  .00000730  00000-0  31977-3 0  9995
2 41138  98.7009 244.5942 0011797  55.6612 304.5682 14.26707266542990
Source of the keplerian elements: AFSPC